Vorticity
2 3 4 7 10 11 16 22 27 31 27 19 14 13 13 12 12 12 12 12 14 16 16 16 15 12 10 10 11 13 15 17 19 30 43 47 39 24 11 4 3 8 13 11 8 8 9 9 9 10 14 17 17 15 13 10 8 9 9 8 7 7 8 8 5 7 9 5 6 11 1 -18 -17 -4 8 20 22 14 13 19 21 15 9 8 11
2 2 3 5 8 10 13 19 24 30 30 22 15 12 12 12 15 18 20 22 24 26 26 26 26 24 20 15 12 11 12 16 17 16 21 32 42 45 37 23 10 4 7 11 10 7 7 8 9 8 9 11 15 17 17 15 12 9 8 8 8 7 6 7 7 5 7 10 5 6 11 0 -16 -19 -12 -0 12 17 16 15 19 20 13 3 1
3 2 3 4 7 8 11 16 20 26 31 27 19 13 10 12 17 22 27 29 31 33 31 32 33 31 29 26 21 16 13 14 17 19 19 19 22 30 38 41 34 22 10 6 8 10 9 7 7 9 9 9 10 14 16 18 17 14 11 8 8 9 8 6 7 7 4 7 9 6 8 10 -1 -13 -16 -16 -16 -7 5 12 18 24 23 11 -2
4 2 2 3 6 7 10 14 16 20 26 27 24 16 11 14 18 22 26 28 30 32 31 31 31 30 29 31 30 24 20 18 16 17 21 22 21 18 21 29 38 41 35 22 11 7 9 10 9 8 9 9 8 9 11 15 17 18 16 12 9 8 10 9 6 8 7 5 7 8 6 8 6 -5 -13 -11 -11 -13 -10 -6 1 13 23 25 14
4 3 2 3 4 6 9 13 15 17 21 22 24 21 14 14 18 22 25 27 28 29 28 28 28 28 26 26 30 29 26 22 18 18 21 23 25 23 21 20 22 29 38 42 34 22 11 8 9 10 8 8 8 7 7 9 12 16 19 18 15 10 8 10 9 8 8 7 5 6 7 8 9 6 -5 -11 -10 -8 -8 -12 -16 -14 -4 8 13
4 3 3 2 4 5 7 12 15 18 19 18 22 23 17 14 16 21 25 27 30 28 26 25 25 27 24 21 21 24 25 23 20 20 22 25 26 24 23 23 22 20 21 28 36 39 31 19 11 11 11 10 9 9 8 8 9 11 15 17 18 17 11 8 9 11 9 9 8 6 6 6 7 10 10 3 -6 -12 -13 -12 -13 -17 -16 -8 -1
4 4 4 2 3 4 6 10 14 17 17 17 22 23 19 15 15 21 25 26 28 26 22 21 22 23 22 18 16 16 17 18 19 20 20 21 22 19 16 15 18 21 21 19 20 26 34 35 27 17 12 10 10 10 9 9 9 9 10 12 15 19 19 13 9 9 11 11 10 8 7 7 7 6 8 12 10 3 -5 -11 -11 -15 -20 -18 -12
4 4 4 4 3 3 5 7 12 15 13 17 22 21 21 18 14 18 25 25 24 22 18 16 17 19 19 17 16 16 16 14 15 17 18 19 19 18 16 13 12 15 21 25 22 17 19 28 34 32 24 16 11 10 10 9 8 10 10 9 10 12 17 19 15 10 9 10 11 11 9 7 7 6 6 7 8 11 11 5 -1 -4 -11 -14 -11
5 4 3 4 3 3 4 4 10 13 10 16 21 19 20 20 15 16 23 25 22 18 15 14 13 14 15 15 15 15 16 17 16 16 17 18 19 19 19 18 16 16 18 24 28 25 20 17 22 31 35 31 22 14 12 12 9 9 10 11 9 9 11 16 18 15 11 9 9 12 12 10 8 7 6 7 6 5 8 9 7 6 5 4 4
6 5 3 4 3 3 4 3 7 10 9 15 18 18 21 20 16 16 20 26 25 18 13 12 12 11 9 10 11 11 12 14 16 17 17 17 18 19 19 18 17 15 16 19 22 24 25 22 17 18 26 35 36 29 18 14 13 10 9 10 11 10 10 10 14 17 16 12 9 9 12 12 11 9 7 6 7 6 6 7 8 7 7 7 7
7 7 4 4 4 4 4 3 5 6 10 15 15 16 22 21 18 16 16 23 26 23 17 12 11 11 9 9 8 8 9 11 13 15 16 17 17 18 19 19 19 18 17 16 17 18 19 21 21 17 15 20 30 38 34 25 19 16 12 10 10 11 11 10 9 12 15 16 13 10 10 12 11 11 9 8 8 7 6 5 7 8 7 7 6
7 7 6 4 3 4 4 3 4 4 8 14 14 14 20 21 19 17 15 18 23 25 23 17 15 13 11 11 10 9 9 9 12 13 14 15 15 15 15 15 17 18 19 19 20 21 20 19 19 19 17 15 16 25 35 37 31 25 20 15 12 10 10 12 11 10 10 14 16 13 10 11 13 13 11 9 9 9 8 6 6 7 7 6 6
7 6 7 6 5 4 4 4 5 4 6 12 12 12 19 22 18 15 16 16 18 22 24 20 19 18 15 14 13 12 11 11 12 13 13 13 13 13 14 14 15 14 15 17 19 22 25 25 24 22 20 17 15 14 19 29 35 34 31 26 20 16 12 11 11 11 10 9 12 16 14 10 10 13 15 13 10 9 9 7 6 7 8 7 6
9 7 6 6 6 5 4 4 4 4 6 10 10 11 18 22 17 14 15 15 14 16 20 19 18 18 18 18 17 16 15 13 14 14 13 14 13 13 13 14 15 16 17 17 18 20 22 25 28 29 27 23 20 18 13 14 20 27 31 32 30 26 22 18 13 11 11 10 8 10 14 15 11 10 12 15 14 12 10 9 7 6 8 8 7
9 9 7 6 7 6 5 4 4 5 6 6 8 12 18 20 19 16 15 14 13 13 16 17 17 16 15 17 18 19 19 18 17 15 14 14 14 13 13 13 15 19 23 24 24 25 25 26 27 27 29 29 27 25 22 18 15 16 19 24 28 30 29 29 26 20 15 13 12 9 8 11 13 12 10 11 14 15 14 12 9 7 8 9 7
9 9 9 7 7 7 6 5 4 4 5 6 7 11 17 18 18 19 17 15 13 12 13 14 16 16 13 13 14 15 17 19 20 19 17 15 14 12 10 12 16 19 24 26 26 28 30 32 33 31 27 27 28 28 27 26 24 21 18 17 18 22 25 28 31 31 25 18 15 14 10 8 9 11 11 10 11 13 15 15 13 10 8 9 9
9 8 9 9 8 7 6 6 5 4 4 5 7 10 15 18 18 19 20 18 15 12 11 11 14 16 13 11 11 10 10 11 14 16 18 18 16 13 10 10 14 17 21 24 26 29 32 33 37 37 31 26 26 26 25 24 24 25 25 23 19 18 20 21 23 29 32 28 22 17 14 10 8 7 8 10 9 9 11 13 15 13 10 9 9
9 8 8 9 9 8 8 6 5 5 4 4 5 8 11 15 17 18 21 21 18 13 10 9 11 13 13 11 9 9 9 9 9 10 12 15 17 16 14 10 12 15 18 21 24 27 29 29 31 34 31 28 27 27 26 24 24 24 25 26 25 21 19 16 13 18 26 30 29 25 20 15 10 7 6 7 8 8 9 11 13 14 14 11 10
10 9 8 9 9 9 8 7 6 5 5 4 4 7 10 12 15 18 21 24 22 15 11 10 10 10 11 11 9 8 9 10 11 11 10 11 13 15 17 14 11 12 15 17 20 23 22 21 22 24 24 23 23 22 22 22 21 20 19 19 19 17 14 11 9 12 17 21 26 28 28 24 18 12 8 5 5 6 8 9 10 12 14 14 12
10 10 9 8 9 9 9 7 7 7 6 5 5 6 8 9 13 17 19 23 25 20 14 12 12 10 9 9 8 7 7 8 9 11 13 12 11 12 15 17 15 12 12 13 16 20 21 18 16 15 15 15 16 16 16 16 17 17 18 19 21 21 19 16 15 16 17 18 20 25 30 33 31 24 17 10 5 4 5 7 8 9 11 14 14
9 10 10 9 8 9 9 8 8 7 6 6 5 5 6 7 10 14 17 21 24 22 18 15 12 11 10 9 8 6 5 6 7 8 12 13 13 12 12 14 17 16 13 10 11 17 20 19 18 16 14 13 14 15 15 14 13 15 20 25 31 36 36 33 31 30 28 26 25 25 26 31 36 37 31 24 15 7 4 5 7 8 8 11 13
8 8 9 10 9 9 9 9 9 7 7 7 5 5 6 7 8 11 15 20 23 22 21 20 16 11 10 10 10 9 5 4 4 6 9 11 12 13 13 12 14 17 18 13 9 12 17 19 19 18 17 14 13 14 15 16 14 12 15 22 32 40 43 42 40 40 38 36 34 33 31 30 34 39 40 37 31 23 13 6 4 5 7 7 9
9 7 7 9 9 10 10 10 9 8 8 8 7 5 5 6 7 8 12 17 21 22 22 23 21 14 9 8 10 11 9 6 4 4 7 9 9 10 13 13 11 12 17 18 13 10 12 16 19 19 19 17 15 13 12 14 16 13 11 13 21 33 39 38 36 37 38 38 36 36 36 34 33 37 41 42 40 36 29 19 9 5 6 7 7
11 9 8 8 9 9 9 10 10 9 9 8 7 6 5 5 5 6 10 13 17 20 21 24 26 21 13 8 7 10 11 10 6 3 4 6 7 7 8 12 12 11 11 15 16 15 13 13 15 17 19 19 18 16 13 12 13 14 11 8 10 20 31 36 34 32 33 35 35 34 34 34 33 33 37 41 43 41 37 31 21 12 7 7 7
11 11 11 9 10 10 9 9 9 10 11 10 8 7 6 6 6 6 8 11 13 17 20 22 26 26 20 13 7 7 10 11 10 6 3 4 6 6 5 7 10 12 11 10 12 15 17 17 14 13 14 18 20 19 17 13 12 13 12 9 6 9 18 29 33 31 30 31 35 36 35 33 33 32 32 35 40 43 41 36 28 19 10 5 6
10 12 12 11 11 11 9 8 8 9 10 11 10 9 8 6 6 6 7 8 10 13 17 21 23 25 25 21 13 7 7 10 12 10 5 3 4 6 5 5 6 8 10 11 11 12 14 17 19 16 12 11 15 19 21 18 13 11 12 11 8 5 8 16 25 30 30 28 30 35 37 37 36 34 33 32 33 38 41 40 36 28 19 11 5
11 12 11 11 12 12 11 9 8 8 9 10 10 10 9 7 5 5 5 6 8 11 14 18 21 23 25 25 21 13 7 6 10 12 9 4 3 4 5 5 5 6 6 8 10 12 12 12 15 19 18 14 10 12 17 22 20 14 11 11 10 8 5 6 13 21 27 28 27 29 35 39 40 38 37 35 34 34 37 40 41 36 29 21 13
11 12 11 11 12 13 12 10 10 10 8 8 9 10 10 9 6 5 5 5 7 9 12 15 18 21 24 25 25 21 13 7 5 10 13 9 4 3 4 5 4 5 5 5 6 8 12 13 12 13 17 19 16 11 9 14 21 21 16 10 8 9 9 6 6 9 16 23 25 26 29 35 40 42 42 40 38 36 36 38 42 42 35 28 21
10 11 11 12 12 12 13 11 10 11 10 8 8 10 10 9 7 6 6 6 6 7 10 12 15 18 22 24 26 26 22 14 6 4 10 13 9 4 4 5 4 4 4 5 5 4 6 11 13 13 13 15 17 18 14 10 12 19 22 19 11 8 8 9 8 6 7 12 17 20 23 27 32 38 43 45 45 43 39 38 41 45 43 35 27
9 9 11 12 12 12 13 12 11 10 11 10 9 9 9 9 8 9 7 6 6 6 8 10 12 15 18 22 25 26 27 23 14 5 3 8 10 9 7 6 6 5 4 5 6 5 4 5 9 13 14 14 12 13 17 17 13 11 15 21 21 15 10 9 8 9 8 7 9 11 15 18 22 27 33 39 44 47 48 45 43 45 47 44 36
8 9 10 11 12 12 13 14 13 11 10 11 10 9 9 8 9 10 9 7 6 6 6 8 10 12 15 19 22 25 27 28 24 15 6 3 5 8 9 9 8 8 7 6 5 6 6 5 5 7 10 15 15 11 9 14 18 17 13 13 17 20 19 14 9 8 9 8 8 8 8 11 13 16 20 24 30 37 44 48 49 49 50 49 44
8 9 10 9 10 13 13 13 15 13 11 11 10 9 9 9 9 10 10 8 6 6 6 6 8 10 12 15 19 23 26 28 28 24 16 8 4 3 4 6 9 9 9 9 7 7 7 7 6 5 4 9 15 15 11 9 11 17 18 15 12 13 17 20 17 12 9 8 8 8 7 7 8 9 11 14 17 21 26 33 39 44 48 49 48
8 10 11 10 10 13 13 12 14 15 14 12 10 10 10 10 9 10 10 8 7 7 6 6 7 8 10 11 15 20 24 26 28 27 23 17 10 6 3 2 4 6 8 8 9 9 9 8 7 6 5 4 6 11 14 13 10 10 14 18 17 13 11 14 17 18 16 12 10 10 10 9 8 8 8 10 12 13 14 18 23 29 36 41 43
8 11 12 11 11 13 13 12 12 14 15 14 12 10 10 10 10 10 10 9 9 8 7 6 6 7 8 9 11 16 21 25 26 26 26 23 17 12 9 4 2 2 3 5 6 7 8 9 9 8 7 5 5 6 8 12 14 12 10 11 16 19 17 12 11 12 15 16 15 14 14 14 13 12 11 12 14 15 15 16 18 21 27 32 37
9 12 13 13 12 12 13 12 12 13 14 15 14 11 8 10 11 10 10 10 10 9 7 6 6 6 7 8 9 11 16 22 25 26 26 25 22 17 14 11 6 3 1 2 3 4 5 6 8 9 9 8 6 6 6 7 10 13 13 10 9 12 17 19 16 12 9 9 11 13 14 13 13 13 12 12 14 15 16 17 17 19 21 23 29
8 12 14 14 13 12 12 12 12 13 13 14 16 13 9 9 10 10 10 10 11 10 8 7 6 5 6 8 8 9 12 17 22 26 27 27 24 19 16 16 13 9 5 2 1 1 2 3 4 6 8 9 8 7 7 7 8 9 11 12 11 9 10 13 18 20 16 11 8 7 8 9 9 9 9 10 11 12 12 13 13 14 16 16 17
8 12 14 14 13 12 13 13 12 13 13 14 16 15 12 9 9 10 9 10 11 11 10 8 7 6 6 7 8 7 9 13 18 22 26 28 26 22 18 16 15 15 13 8 4 2 1 1 2 2 3 5 6 7 7 8 9 8 7 9 11 12 10 9 10 14 19 20 16 11 7 6 6 6 6 6 7 8 9 10 10 11 12 14 13
7 12 13 13 13 14 14 15 14 13 12 13 14 16 15 11 8 9 10 10 10 11 12 10 8 6 6 6 7 7 7 10 14 19 23 26 27 25 22 17 14 14 17 16 12 8 4 2 0 1 2 2 2 3 4 6 8 9 9 9 9 9 11 11 9 8 10 15 19 20 17 12 8 7 6 6 6 6 6 6 7 8 9 11 12
7 10 12 12 13 14 15 15 15 14 13 12 12 14 16 13 9 9 10 10 10 11 12 11 9 7 6 6 7 7 7 7 10 15 21 24 26 27 27 22 16 11 12 16 18 16 13 10 6 2 1 1 1 0 1 2 4 5 8 10 10 9 9 10 11 11 9 9 12 16 21 22 19 15 11 8 8 8 7 6 6 7 7 7 8
7 10 12 12 12 13 15 15 15 15 14 13 11 12 15 15 11 9 9 10 10 11 12 13 11 8 7 6 6 6 7 7 7 10 16 22 24 26 28 27 22 15 10 10 14 17 17 17 15 12 8 5 3 1 -0 -0 -0 1 3 7 10 11 10 10 10 11 11 11 10 10 12 17 22 24 22 18 14 11 9 8 9 9 7 6 7
7 9 11 12 11 12 14 15 15 15 15 14 11 10 14 16 14 10 8 9 10 10 10 13 13 10 7 6 6 6 7 6 6 7 12 18 21 24 27 29 27 22 15 9 9 12 15 16 17 17 17 15 11 8 4 2 0 -1 0 3 6 9 10 11 10 10 11 12 12 11 9 8 10 15 21 24 24 22 18 15 13 12 10 10 10
7 9 9 10 11 12 13 14 14 16 16 15 13 10 11 16 16 12 8 8 10 10 10 12 13 12 10 7 5 6 7 6 6 6 8 13 18 21 25 28 30 28 22 14 9 9 10 12 13 15 17 18 18 16 13 9 5 2 1 2 5 7 9 10 10 9 10 12 13 13 12 10 6 5 6 11 16 20 24 24 21 17 15 14 13
6 9 9 9 10 11 12 13 14 15 16 16 16 13 10 13 17 15 9 8 10 10 9 11 12 12 11 9 7 6 6 7 6 6 6 8 12 17 22 26 29 31 28 21 13 9 8 10 10 11 13 15 17 18 18 16 13 8 6 6 6 6 7 9 11 9 8 10 13 14 13 13 12 8 5 3 2 4 10 14 18 20 20 19 18
5 8 8 9 9 10 11 12 12 15 16 16 17 15 11 11 16 17 13 8 8 10 10 10 11 13 12 11 8 6 6 7 6 6 6 7 9 13 17 21 25 30 31 27 20 12 9 8 9 9 11 13 16 18 19 19 18 16 12 10 10 8 7 7 9 10 9 8 9 12 14 14 15 15 13 11 8 6 6 6 7 10 14 17 20
5 7 9 9 8 9 11 10 11 13 15 16 18 17 13 10 13 18 17 11 7 10 11 9 10 12 13 12 10 7 6 6 7 6 6 6 7 10 14 18 22 26 30 30 26 18 12 10 9 9 9 10 14 18 19 18 18 19 18 15 13 11 8 6 8 9 10 9 8 10 12 13 14 15 16 15 14 13 14 14 13 10 8 10 12
3 5 10 10 8 9 11 10 9 11 13 15 18 18 15 11 11 16 19 14 8 8 11 10 10 11 13 12 11 9 7 6 6 6 6 6 6 8 11 15 19 23 27 30 29 23 16 12 10 9 9 9 12 17 21 18 16 17 18 18 17 14 9 6 7 8 9 9 8 9 10 11 11 13 15 16 15 13 11 11 12 11 10 10 9
3 3 8 10 8 9 11 10 8 9 12 14 17 19 17 12 11 14 18 18 12 8 10 11 10 10 12 13 12 11 8 6 6 6 6 6 6 7 9 12 16 20 25 29 30 27 19 13 10 9 10 10 12 19 23 19 15 15 17 17 18 17 12 8 6 8 9 9 7 8 9 9 10 10 10 13 16 17 16 12 8 6 5 5 6
3 1 4 6 7 9 10 9 8 8 10 13 16 19 17 13 11 12 16 19 15 10 10 11 11 9 11 12 13 12 9 7 7 6 5 6 6 6 8 10 12 16 21 26 30 28 23 16 11 9 10 12 15 20 24 20 14 13 16 18 19 18 14 10 7 7 9 9 7 6 7 7 8 8 7 7 9 12 16 17 16 14 11 8 6
11 8 6 4 5 8 10 9 8 8 10 13 16 18 17 14 13 12 14 17 18 13 10 11 11 10 10 11 13 13 10 8 7 6 6 6 6 6 6 8 9 12 17 24 28 29 25 19 12 10 12 16 18 20 21 17 12 13 15 18 18 17 14 12 9 8 9 9 7 6 6 6 6 7 8 9 9 10 12 13 13 15 16 17 16
15 14 11 7 6 6 8 9 8 8 10 12 14 16 16 14 13 13 12 15 19 16 12 11 11 10 10 11 12 13 12 9 7 6 6 7 8 7 6 6 7 9 12 18 24 28 28 23 16 12 13 17 19 19 17 14 12 13 16 16 15 14 14 12 10 9 10 10 8 6 6 6 6 8 10 11 12 15 17 16 13 13 14 16 19
12 13 14 15 12 8 7 8 8 8 10 12 13 15 14 13 13 14 12 13 18 18 13 11 12 12 10 10 12 13 12 11 9 7 5 6 8 8 7 7 7 8 10 13 18 24 28 27 22 17 15 16 18 16 14 13 12 13 14 14 12 11 11 11 11 11 11 11 10 7 6 6 7 9 9 10 12 15 18 17 17 17 19 19 20
Height
5600 5591 5582 5574 5565 5556 5546 5537 5529 5521 5514 5509 5504 5499 5494 5490 5485 5480 5474 5468 5464 5461 5457 5453 5451 5450 5449 5447 5446 5445 5444 5443 5443 5443 5444 5446 5448 5450 5452 5454 5454 5454 5457 5461 5465 5470 5474 5479 5483 5487 5491 5496 5500 5504 5508 5513 5517 5522 5526 5531 5536 5541 5546 5551 5554 5559 5564 5569 5573 5578 5583 5588 5591 5594 5597 5599 5602 5606 5609 5612 5616 5620 5625 5629 5633
5599 5589 5581 5573 5565 5555 5545 5536 5527 5519 5512 5505 5500 5495 5491 5485 5479 5474 5468 5461 5455 5452 5447 5444 5441 5439 5439 5438 5438 5437 5436 5436 5437 5437 5437 5438 5439 5440 5442 5443 5444 5445 5448 5451 5455 5459 5463 5467 5471 5475 5479 5483 5488 5493 5497 5501 5505 5510 5515 5520 5525 5530 5535 5539 5543 5548 5553 5558 5562 5567 5573 5578 5581 5585 5589 5592 5595 5598 5601 5604 5606 5610 5615 5620 5624
5597 5588 5580 5572 5564 5554 5544 5534 5525 5518 5510 5503 5497 5491 5486 5480 5474 5467 5461 5455 5449 5444 5440 5436 5433 5430 5429 5429 5430 5430 5430 5429 5430 5431 5430 5431 5431 5431 5432 5433 5435 5437 5440 5443 5446 5449 5452 5456 5460 5463 5467 5471 5475 5480 5485 5489 5494 5498 5503 5508 5513 5518 5523 5527 5531 5535 5542 5547 5551 5556 5562 5566 5570 5575 5579 5583 5587 5589 5592 5596 5598 5601 5605 5609 5613
5594 5587 5579 5571 5562 5553 5543 5533 5524 5516 5509 5501 5494 5488 5482 5476 5470 5462 5455 5448 5443 5438 5434 5430 5427 5424 5422 5422 5422 5423 5423 5423 5424 5423 5423 5424 5424 5424 5425 5426 5427 5429 5431 5433 5436 5439 5442 5445 5448 5450 5453 5457 5462 5467 5472 5477 5482 5487 5491 5496 5501 5506 5511 5516 5519 5524 5530 5535 5539 5546 5551 5554 5560 5565 5567 5572 5576 5580 5584 5588 5591 5593 5596 5598 5602
5591 5585 5577 5569 5560 5551 5542 5532 5523 5514 5506 5498 5492 5485 5479 5473 5466 5458 5450 5443 5437 5433 5429 5426 5423 5420 5418 5417 5417 5417 5417 5417 5418 5417 5416 5417 5418 5418 5419 5420 5421 5421 5422 5424 5427 5429 5432 5434 5435 5437 5441 5445 5450 5455 5460 5464 5469 5474 5479 5484 5490 5495 5500 5504 5508 5513 5518 5522 5527 5535 5540 5543 5550 5554 5557 5562 5565 5569 5574 5578 5582 5585 5587 5590 5593
5589 5582 5574 5566 5558 5550 5541 5532 5522 5513 5504 5496 5490 5483 5476 5469 5462 5455 5447 5440 5434 5429 5426 5423 5420 5418 5416 5415 5414 5413 5412 5412 5412 5411 5411 5411 5412 5412 5412 5413 5413 5413 5414 5415 5416 5418 5420 5423 5424 5426 5430 5435 5439 5443 5448 5452 5457 5462 5466 5472 5478 5483 5488 5494 5499 5502 5505 5510 5515 5523 5528 5532 5539 5543 5545 5551 5554 5558 5563 5567 5571 5575 5577 5581 5585
5589 5581 5573 5565 5557 5549 5540 5532 5523 5514 5505 5496 5488 5481 5473 5466 5459 5452 5445 5438 5432 5427 5423 5421 5418 5416 5414 5413 5412 5411 5410 5408 5407 5407 5406 5406 5406 5406 5407 5407 5407 5407 5407 5407 5408 5409 5410 5412 5414 5416 5419 5423 5427 5431 5435 5439 5444 5449 5454 5459 5465 5470 5475 5482 5488 5490 5493 5499 5504 5510 5515 5520 5527 5530 5533 5539 5543 5546 5551 5557 5560 5564 5568 5571 5575
5587 5579 5572 5564 5556 5548 5539 5531 5523 5515 5506 5497 5488 5479 5472 5464 5457 5450 5443 5437 5431 5426 5422 5420 5418 5415 5413 5411 5410 5408 5407 5406 5404 5403 5402 5402 5402 5401 5401 5401 5401 5400 5400 5400 5400 5401 5401 5402 5404 5406 5409 5412 5415 5419 5424 5428 5432 5437 5441 5447 5452 5457 5462 5468 5475 5478 5482 5488 5493 5496 5502 5508 5514 5518 5521 5527 5530 5534 5540 5546 5549 5553 5558 5562 5565
5585 5577 5570 5562 5554 5546 5538 5530 5522 5514 5506 5498 5488 5479 5470 5462 5456 5450 5443 5436 5430 5425 5422 5419 5417 5414 5412 5410 5408 5406 5405 5403 5402 5400 5399 5398 5397 5397 5396 5396 5395 5394 5393 5393 5393 5393 5393 5394 5395 5396 5399 5402 5405 5409 5413 5416 5421 5425 5429 5434 5440 5445 5450 5455 5462 5466 5470 5477 5481 5483 5490 5496 5501 5505 5509 5513 5517 5523 5529 5533 5537 5542 5547 5551 5555
5583 5575 5567 5560 5552 5545 5537 5529 5521 5514 5506 5497 5487 5478 5470 5462 5456 5450 5443 5435 5429 5425 5422 5418 5416 5413 5411 5409 5407 5405 5403 5401 5399 5397 5396 5395 5393 5392 5391 5390 5389 5388 5387 5386 5386 5386 5385 5386 5387 5388 5390 5392 5395 5398 5401 5405 5409 5413 5418 5423 5428 5432 5437 5442 5448 5454 5458 5464 5468 5471 5477 5483 5488 5493 5497 5501 5505 5510 5516 5521 5525 5530 5535 5540 5546
5581 5573 5565 5558 5551 5544 5536 5528 5521 5513 5505 5496 5486 5478 5470 5463 5456 5449 5442 5435 5430 5425 5421 5417 5415 5412 5409 5407 5405 5403 5400 5398 5396 5394 5392 5391 5389 5388 5387 5386 5384 5383 5382 5380 5379 5379 5378 5379 5379 5380 5381 5383 5385 5388 5391 5394 5398 5402 5407 5412 5416 5420 5425 5429 5434 5441 5446 5451 5455 5458 5464 5469 5474 5480 5485 5488 5491 5496 5503 5509 5512 5517 5523 5529 5535
5579 5572 5564 5557 5550 5542 5535 5528 5521 5512 5504 5495 5487 5478 5470 5463 5456 5448 5442 5436 5430 5425 5420 5416 5413 5410 5407 5405 5403 5401 5398 5396 5393 5391 5389 5387 5386 5384 5382 5381 5379 5377 5376 5374 5373 5372 5371 5371 5371 5372 5373 5375 5377 5379 5381 5384 5387 5391 5396 5400 5405 5409 5414 5418 5422 5427 5432 5437 5442 5446 5451 5456 5460 5466 5473 5475 5478 5484 5490 5496 5500 5503 5510 5518 5523
5578 5570 5564 5557 5549 5542 5535 5527 5520 5511 5503 5494 5486 5478 5470 5462 5455 5448 5442 5436 5430 5424 5419 5415 5412 5408 5405 5403 5400 5398 5396 5394 5391 5389 5387 5384 5382 5381 5379 5377 5375 5372 5370 5368 5366 5364 5364 5363 5363 5364 5365 5366 5368 5371 5373 5375 5378 5381 5384 5388 5393 5398 5403 5407 5410 5414 5418 5423 5429 5433 5438 5443 5447 5453 5459 5461 5465 5471 5476 5483 5489 5491 5496 5506 5512
5576 5569 5562 5556 5548 5541 5533 5526 5518 5511 5502 5493 5485 5478 5469 5460 5453 5447 5441 5434 5429 5424 5419 5415 5411 5407 5404 5401 5398 5396 5393 5391 5389 5386 5384 5382 5379 5377 5375 5373 5370 5368 5365 5362 5359 5357 5355 5355 5355 5355 5356 5358 5360 5362 5365 5367 5370 5372 5374 5378 5382 5386 5391 5396 5399 5402 5405 5410 5415 5420 5424 5429 5434 5440 5444 5447 5452 5458 5463 5470 5478 5479 5483 5494 5500
5574 5568 5560 5553 5546 5539 5531 5524 5516 5508 5500 5492 5485 5477 5467 5459 5452 5446 5440 5434 5429 5424 5419 5414 5410 5406 5403 5400 5397 5394 5391 5389 5386 5384 5382 5379 5377 5374 5371 5369 5366 5363 5359 5356 5352 5350 5348 5346 5346 5347 5348 5349 5351 5353 5356 5358 5361 5363 5365 5368 5371 5375 5379 5384 5387 5389 5392 5397 5401 5404 5409 5414 5421 5426 5430 5434 5440 5445 5450 5457 5464 5467 5472 5481 5488
5572 5565 5558 5551 5544 5536 5529 5522 5514 5506 5498 5491 5483 5474 5465 5458 5452 5446 5440 5434 5429 5424 5419 5414 5410 5406 5402 5399 5396 5393 5390 5387 5384 5382 5379 5377 5374 5371 5368 5365 5362 5358 5354 5350 5347 5344 5341 5339 5339 5339 5340 5341 5343 5345 5347 5349 5351 5353 5355 5358 5361 5364 5368 5372 5374 5374 5377 5382 5385 5388 5394 5400 5406 5412 5416 5421 5427 5432 5437 5444 5450 5455 5462 5469 5474
5570 5563 5556 5549 5541 5534 5526 5519 5512 5504 5497 5489 5482 5473 5466 5458 5451 5445 5439 5434 5429 5423 5418 5414 5410 5405 5402 5399 5395 5392 5388 5385 5382 5379 5377 5374 5371 5368 5365 5362 5358 5354 5350 5346 5342 5339 5336 5334 5333 5332 5333 5335 5336 5337 5339 5341 5343 5344 5346 5348 5351 5353 5356 5360 5361 5360 5362 5367 5370 5373 5377 5384 5391 5396 5401 5407 5414 5419 5424 5430 5437 5443 5450 5456 5461
5567 5559 5553 5546 5539 5532 5525 5517 5510 5503 5496 5488 5481 5474 5466 5458 5451 5445 5438 5432 5427 5422 5417 5413 5409 5405 5401 5398 5394 5391 5387 5384 5380 5377 5374 5371 5368 5365 5362 5359 5356 5352 5348 5343 5339 5336 5333 5331 5330 5329 5329 5330 5331 5332 5333 5334 5336 5337 5339 5340 5341 5343 5345 5347 5348 5347 5348 5352 5355 5358 5361 5368 5376 5381 5386 5393 5400 5406 5412 5418 5424 5430 5436 5443 5449
5564 5556 5549 5543 5536 5529 5523 5516 5509 5502 5495 5488 5481 5473 5466 5458 5451 5444 5437 5431 5425 5421 5416 5412 5408 5404 5400 5397 5394 5390 5386 5382 5379 5375 5372 5369 5365 5362 5359 5356 5353 5349 5345 5341 5338 5335 5332 5330 5328 5327 5327 5327 5327 5328 5328 5329 5330 5330 5331 5331 5332 5333 5334 5336 5335 5334 5336 5338 5341 5344 5347 5352 5359 5365 5371 5378 5385 5392 5399 5406 5412 5417 5422 5430 5436
5560 5554 5547 5540 5534 5527 5520 5514 5508 5500 5494 5487 5479 5472 5465 5458 5451 5443 5436 5430 5424 5420 5415 5411 5406 5402 5399 5395 5392 5389 5385 5381 5377 5373 5370 5367 5363 5360 5356 5353 5350 5347 5343 5340 5336 5333 5331 5329 5327 5326 5325 5325 5324 5324 5324 5324 5324 5324 5324 5324 5324 5323 5324 5324 5323 5322 5324 5326 5328 5331 5333 5338 5343 5348 5355 5363 5371 5378 5386 5394 5399 5404 5409 5416 5423
5557 5551 5545 5539 5532 5525 5518 5512 5505 5498 5491 5485 5478 5471 5464 5457 5449 5442 5435 5428 5423 5418 5414 5409 5404 5401 5397 5394 5390 5387 5383 5380 5376 5372 5368 5365 5361 5358 5354 5351 5348 5345 5342 5338 5335 5332 5330 5328 5326 5324 5323 5322 5322 5321 5321 5320 5319 5319 5318 5317 5315 5314 5313 5312 5311 5311 5312 5314 5316 5318 5320 5324 5328 5332 5339 5348 5355 5364 5373 5380 5385 5390 5396 5403 5410
5555 5549 5543 5537 5530 5523 5516 5509 5503 5496 5490 5483 5476 5469 5463 5455 5448 5441 5434 5428 5422 5416 5412 5407 5403 5399 5395 5392 5388 5385 5381 5378 5374 5370 5367 5363 5359 5355 5352 5349 5346 5343 5340 5337 5333 5331 5328 5326 5324 5323 5321 5320 5319 5318 5317 5316 5315 5313 5312 5310 5308 5305 5303 5302 5301 5300 5301 5302 5304 5305 5308 5311 5313 5317 5324 5332 5339 5348 5358 5365 5369 5374 5382 5390 5396
5554 5547 5541 5535 5528 5521 5515 5508 5501 5494 5487 5481 5474 5468 5461 5455 5448 5442 5435 5428 5421 5415 5410 5405 5401 5397 5393 5390 5386 5382 5379 5376 5372 5369 5365 5361 5358 5354 5350 5347 5344 5340 5338 5335 5332 5329 5327 5324 5322 5320 5319 5317 5316 5315 5313 5312 5310 5309 5307 5304 5302 5299 5296 5294 5293 5292 5291 5292 5293 5295 5297 5299 5300 5304 5310 5317 5323 5331 5340 5349 5354 5360 5368 5376 5383
5552 5545 5539 5532 5526 5519 5513 5507 5500 5493 5486 5479 5473 5467 5460 5454 5448 5441 5435 5427 5420 5414 5408 5403 5398 5394 5391 5387 5384 5380 5377 5373 5370 5367 5363 5360 5356 5352 5349 5346 5342 5339 5336 5333 5330 5327 5325 5323 5320 5318 5316 5314 5313 5311 5310 5308 5307 5305 5302 5300 5297 5294 5291 5288 5287 5285 5284 5284 5285 5285 5287 5288 5289 5293 5298 5303 5308 5315 5323 5331 5338 5344 5351 5361 5369
5550 5543 5536 5530 5524 5517 5511 5505 5499 5493 5485 5478 5472 5466 5460 5453 5447 5440 5433 5426 5420 5413 5407 5402 5396 5392 5388 5384 5381 5377 5374 5371 5368 5364 5361 5358 5354 5351 5348 5344 5341 5338 5334 5331 5328 5326 5323 5321 5318 5316 5314 5312 5310 5308 5306 5305 5303 5301 5299 5296 5293 5291 5288 5285 5282 5280 5279 5278 5278 5278 5278 5279 5280 5283 5287 5291 5295 5301 5308 5314 5320 5327 5335 5345 5355
5547 5541 5534 5527 5521 5514 5508 5502 5496 5490 5484 5477 5470 5464 5457 5451 5444 5438 5431 5425 5419 5414 5407 5401 5395 5390 5385 5382 5378 5375 5371 5368 5365 5362 5359 5356 5353 5350 5346 5343 5340 5336 5333 5330 5327 5324 5321 5319 5316 5314 5312 5310 5307 5305 5303 5302 5300 5298 5295 5293 5290 5287 5285 5282 5279 5277 5275 5273 5272 5271 5271 5271 5272 5275 5278 5281 5284 5289 5294 5299 5305 5313 5322 5332 5341
5545 5538 5531 5524 5518 5511 5505 5499 5492 5486 5480 5474 5468 5462 5455 5449 5443 5437 5431 5425 5419 5413 5406 5400 5393 5388 5383 5379 5375 5372 5369 5366 5362 5359 5357 5354 5351 5348 5345 5342 5338 5335 5332 5329 5326 5322 5320 5317 5314 5312 5310 5307 5305 5303 5301 5299 5296 5294 5292 5290 5287 5285 5282 5280 5277 5274 5272 5270 5268 5267 5265 5265 5265 5267 5269 5272 5275 5279 5283 5288 5294 5302 5310 5318 5328
5542 5536 5529 5522 5515 5508 5502 5496 5489 5483 5476 5470 5465 5459 5453 5448 5442 5436 5430 5424 5418 5412 5405 5398 5392 5386 5381 5377 5373 5369 5366 5363 5360 5357 5354 5351 5348 5346 5343 5340 5337 5334 5331 5327 5324 5321 5318 5315 5312 5310 5308 5305 5303 5300 5298 5296 5294 5292 5289 5287 5285 5282 5280 5277 5275 5273 5270 5268 5266 5264 5262 5261 5261 5261 5262 5264 5267 5270 5274 5279 5284 5291 5298 5305 5314
5539 5533 5526 5520 5513 5506 5499 5493 5487 5480 5474 5467 5461 5455 5450 5445 5439 5434 5429 5423 5416 5410 5404 5397 5391 5385 5380 5375 5370 5366 5363 5360 5357 5354 5351 5349 5346 5343 5340 5338 5335 5332 5329 5326 5323 5320 5316 5313 5310 5308 5306 5303 5301 5298 5296 5294 5292 5290 5287 5285 5283 5280 5278 5276 5273 5271 5269 5267 5264 5262 5260 5259 5258 5258 5258 5259 5261 5264 5267 5272 5276 5281 5288 5295 5303
5537 5530 5524 5517 5510 5503 5497 5490 5484 5477 5471 5465 5458 5452 5446 5441 5436 5431 5426 5421 5415 5408 5402 5396 5390 5383 5378 5373 5368 5363 5360 5356 5353 5351 5348 5346 5343 5340 5337 5335 5332 5330 5327 5324 5321 5318 5315 5312 5309 5306 5304 5301 5299 5296 5294 5291 5289 5287 5285 5283 5281 5279 5276 5274 5272 5270 5268 5266 5264 5262 5260 5258 5257 5256 5256 5257 5258 5259 5262 5266 5269 5274 5280 5287 5295
5534 5527 5520 5514 5507 5500 5494 5487 5481 5474 5468 5462 5456 5450 5444 5439 5434 5429 5424 5418 5413 5407 5400 5394 5388 5382 5376 5370 5365 5361 5357 5353 5350 5347 5344 5342 5340 5337 5335 5332 5329 5327 5324 5322 5319 5316 5313 5310 5307 5304 5302 5299 5297 5294 5292 5290 5287 5285 5283 5281 5279 5277 5275 5273 5271 5269 5267 5265 5263 5262 5260 5259 5257 5256 5256 5256 5256 5258 5259 5262 5265 5269 5274 5280 5287
5531 5524 5517 5511 5505 5498 5492 5485 5478 5472 5465 5460 5454 5448 5443 5437 5431 5426 5421 5416 5410 5405 5399 5393 5387 5381 5374 5368 5363 5358 5354 5350 5346 5343 5341 5338 5336 5334 5331 5329 5326 5324 5321 5319 5316 5314 5311 5308 5305 5303 5300 5297 5295 5293 5290 5288 5286 5283 5281 5279 5277 5275 5273 5272 5270 5268 5266 5264 5263 5262 5260 5259 5258 5257 5257 5256 5257 5257 5259 5260 5263 5266 5270 5275 5280
5528 5521 5515 5509 5502 5496 5489 5482 5476 5470 5463 5458 5452 5446 5440 5434 5429 5423 5418 5413 5408 5402 5397 5391 5385 5379 5373 5367 5361 5356 5351 5347 5343 5339 5337 5334 5332 5330 5328 5326 5323 5321 5318 5316 5313 5311 5309 5306 5303 5301 5299 5296 5293 5291 5289 5287 5284 5282 5280 5277 5275 5273 5272 5270 5269 5267 5265 5264 5263 5261 5260 5260 5259 5258 5258 5257 5257 5258 5259 5260 5262 5265 5268 5272 5276
5525 5518 5512 5506 5499 5493 5487 5480 5474 5468 5461 5455 5450 5444 5438 5432 5426 5420 5415 5410 5405 5400 5395 5389 5384 5378 5372 5366 5360 5354 5349 5344 5340 5336 5333 5330 5328 5325 5323 5322 5320 5318 5315 5313 5311 5308 5306 5304 5301 5299 5297 5294 5292 5289 5287 5285 5283 5281 5279 5276 5274 5272 5270 5268 5267 5266 5264 5263 5262 5261 5260 5260 5259 5259 5259 5259 5259 5259 5260 5261 5262 5264 5267 5270 5273
5521 5515 5508 5502 5496 5489 5483 5477 5471 5465 5458 5452 5446 5441 5435 5429 5423 5418 5413 5407 5402 5397 5392 5387 5382 5376 5371 5365 5358 5353 5347 5342 5337 5333 5329 5326 5324 5321 5319 5317 5315 5314 5312 5310 5307 5305 5303 5301 5299 5296 5294 5292 5290 5288 5285 5283 5281 5279 5277 5275 5273 5271 5269 5267 5266 5264 5263 5262 5261 5260 5260 5259 5259 5259 5259 5259 5260 5260 5261 5262 5263 5265 5267 5269 5272
5518 5511 5504 5498 5492 5486 5480 5474 5467 5461 5455 5448 5443 5437 5431 5426 5420 5415 5410 5405 5399 5395 5390 5385 5380 5374 5369 5363 5357 5351 5345 5340 5335 5330 5326 5323 5320 5317 5314 5312 5310 5309 5307 5306 5304 5302 5300 5298 5296 5294 5291 5289 5288 5286 5283 5282 5280 5278 5276 5274 5272 5270 5268 5266 5264 5263 5262 5261 5261 5260 5259 5259 5259 5258 5259 5259 5260 5260 5261 5262 5263 5265 5267 5269 5272
5515 5509 5502 5495 5489 5482 5476 5470 5464 5458 5452 5445 5439 5433 5428 5423 5417 5412 5407 5402 5397 5392 5387 5382 5377 5372 5367 5361 5356 5350 5344 5338 5333 5328 5324 5319 5316 5313 5310 5308 5306 5304 5303 5301 5299 5298 5296 5294 5293 5291 5289 5287 5285 5283 5281 5279 5278 5276 5274 5272 5271 5269 5267 5265 5264 5262 5261 5260 5259 5259 5258 5258 5258 5258 5258 5258 5259 5260 5261 5262 5263 5264 5266 5268 5270
5511 5505 5499 5492 5486 5479 5473 5467 5460 5454 5449 5443 5436 5430 5424 5419 5414 5409 5404 5399 5394 5389 5384 5379 5375 5370 5364 5359 5354 5348 5342 5337 5331 5326 5321 5317 5312 5309 5306 5303 5301 5299 5298 5296 5295 5293 5292 5291 5289 5288 5286 5284 5282 5280 5279 5277 5276 5274 5273 5271 5269 5268 5266 5264 5263 5261 5260 5259 5258 5257 5257 5257 5257 5257 5257 5258 5258 5259 5260 5261 5262 5263 5265 5267 5268
5508 5501 5495 5488 5482 5476 5469 5463 5456 5450 5444 5438 5432 5426 5420 5415 5410 5405 5400 5395 5390 5385 5381 5376 5372 5367 5362 5357 5351 5346 5341 5335 5329 5324 5319 5314 5310 5305 5302 5299 5297 5295 5293 5292 5290 5288 5287 5286 5285 5284 5283 5281 5279 5277 5276 5275 5273 5272 5271 5269 5268 5266 5264 5263 5261 5260 5259 5258 5257 5256 5255 5255 5255 5255 5256 5256 5257 5258 5258 5259 5260 5262 5263 5264 5266
5504 5497 5490 5484 5477 5471 5465 5458 5452 5445 5439 5433 5428 5422 5416 5411 5405 5401 5396 5391 5386 5382 5377 5373 5368 5364 5359 5354 5349 5344 5339 5333 5327 5322 5317 5312 5307 5303 5299 5295 5293 5291 5289 5287 5286 5284 5282 5280 5279 5278 5278 5277 5276 5274 5273 5272 5270 5269 5268 5267 5266 5264 5263 5261 5260 5259 5258 5256 5256 5255 5254 5254 5253 5253 5253 5254 5254 5255 5256 5257 5258 5260 5261 5262 5264
5498 5491 5484 5478 5471 5466 5460 5453 5447 5441 5435 5429 5423 5418 5412 5407 5401 5397 5392 5387 5383 5378 5374 5369 5365 5360 5356 5351 5346 5341 5336 5331 5325 5320 5315 5310 5305 5300 5296 5292 5289 5287 5285 5283 5282 5280 5278 5276 5274 5273 5272 5271 5271 5270 5269 5268 5267 5266 5265 5264 5263 5262 5261 5259 5258 5257 5256 5255 5254 5253 5253 5253 5252 5252 5251 5252 5252 5253 5254 5255 5256 5257 5258 5259 5261
5492 5485 5479 5472 5466 5460 5454 5449 5443 5436 5430 5424 5419 5414 5408 5403 5397 5392 5388 5383 5379 5374 5370 5366 5361 5357 5353 5348 5344 5339 5333 5328 5323 5318 5313 5308 5303 5298 5293 5289 5285 5283 5281 5279 5278 5276 5274 5272 5270 5268 5267 5266 5265 5265 5264 5264 5263 5262 5262 5261 5260 5259 5258 5257 5256 5255 5254 5253 5252 5252 5251 5251 5251 5251 5250 5250 5250 5251 5252 5252 5253 5253 5254 5256 5258
5486 5479 5473 5467 5461 5455 5449 5444 5438 5432 5426 5420 5414 5409 5403 5398 5393 5388 5383 5379 5375 5370 5366 5362 5358 5354 5349 5345 5341 5336 5331 5326 5321 5316 5311 5306 5301 5296 5292 5287 5283 5279 5277 5275 5273 5272 5270 5268 5266 5264 5263 5262 5261 5260 5259 5259 5258 5258 5258 5257 5257 5256 5256 5255 5254 5252 5252 5251 5250 5249 5249 5249 5249 5249 5249 5249 5249 5249 5250 5250 5250 5250 5251 5253 5254
5480 5474 5468 5462 5456 5450 5444 5439 5433 5427 5421 5416 5410 5404 5398 5393 5389 5383 5379 5374 5370 5366 5362 5358 5354 5350 5346 5342 5337 5333 5328 5323 5318 5314 5309 5304 5299 5294 5290 5285 5280 5277 5273 5271 5269 5268 5266 5264 5262 5260 5258 5257 5256 5255 5254 5254 5254 5254 5253 5253 5253 5252 5252 5252 5251 5250 5249 5248 5248 5247 5247 5246 5246 5246 5247 5247 5247 5247 5247 5248 5248 5248 5249 5250 5251
5474 5469 5463 5457 5451 5445 5439 5434 5428 5423 5417 5411 5406 5400 5394 5389 5384 5379 5374 5370 5366 5362 5358 5354 5350 5346 5342 5339 5335 5330 5326 5321 5316 5311 5307 5302 5297 5292 5287 5283 5278 5274 5270 5267 5265 5264 5263 5261 5259 5256 5254 5253 5252 5251 5250 5249 5249 5249 5249 5249 5248 5248 5248 5248 5248 5247 5247 5246 5245 5245 5244 5244 5244 5244 5244 5244 5244 5244 5244 5245 5245 5246 5246 5247 5248
5469 5463 5458 5452 5446 5440 5434 5428 5423 5418 5413 5407 5401 5396 5390 5385 5380 5375 5370 5366 5361 5358 5354 5350 5346 5343 5339 5335 5331 5327 5323 5319 5314 5309 5304 5299 5295 5290 5285 5281 5276 5272 5268 5265 5262 5260 5259 5257 5255 5253 5251 5249 5247 5247 5246 5245 5245 5245 5244 5244 5244 5244 5244 5245 5245 5245 5244 5243 5243 5242 5242 5241 5241 5241 5241 5241 5241 5241 5242 5242 5242 5243 5243 5244 5245
5464 5458 5453 5447 5440 5434 5429 5423 5417 5412 5407 5402 5396 5391 5385 5380 5375 5370 5366 5361 5357 5353 5349 5345 5342 5339 5335 5331 5328 5324 5320 5316 5312 5307 5303 5297 5292 5288 5283 5279 5274 5270 5266 5262 5259 5257 5255 5253 5251 5249 5247 5245 5244 5243 5242 5241 5241 5240 5240 5240 5240 5240 5241 5241 5241 5241 5241 5241 5240 5240 5240 5239 5239 5239 5238 5238 5238 5238 5239 5239 5239 5239 5240 5241 5241
5458 5453 5447 5441 5435 5428 5422 5417 5411 5406 5401 5396 5391 5386 5381 5375 5370 5365 5361 5357 5353 5349 5345 5341 5337 5334 5331 5327 5324 5320 5317 5313 5308 5304 5300 5296 5291 5286 5282 5277 5273 5268 5264 5260 5257 5254 5252 5250 5248 5246 5244 5242 5240 5239 5238 5238 5237 5236 5236 5236 5236 5237 5237 5237 5237 5238 5238 5238 5238 5238 5237 5237 5237 5236 5236 5236 5235 5235 5235 5235 5235 5236 5236 5236 5237
5451 5446 5441 5435 5429 5422 5416 5411 5406 5401 5395 5390 5386 5381 5376 5370 5366 5361 5356 5352 5348 5344 5340 5337 5333 5330 5326 5323 5320 5316 5313 5309 5305 5301 5297 5294 5290 5285 5280 5276 5271 5267 5262 5258 5255 5252 5250 5247 5245 5243 5241 5239 5237 5235 5235 5234 5233 5233 5232 5232 5233 5233 5233 5233 5234 5234 5234 5235 5235 5235 5235 5235 5235 5234 5234 5233 5233 5233 5232 5232 5232 5232 5232 5232 5232
5444 5439 5434 5428 5423 5416 5410 5405 5400 5395 5389 5384 5380 5375 5371 5366 5361 5356 5351 5347 5343 5339 5336 5332 5329 5326 5322 5319 5316 5313 5309 5306 5302 5298 5295 5291 5288 5283 5279 5274 5270 5265 5261 5257 5253 5250 5248 5245 5243 5241 5239 5237 5234 5232 5231 5230 5230 5230 5229 5230 5230 5229 5229 5229 5230 5230 5231 5231 5232 5232 5232 5232 5232 5232 5232 5231 5230 5230 5230 5229 5228 5228 5227 5227 5227
5435 5430 5425 5420 5415 5410 5403 5398 5393 5389 5383 5378 5374 5370 5365 5360 5356 5351 5347 5342 5338 5334 5331 5328 5324 5321 5318 5315 5312 5309 5306 5303 5299 5295 5292 5289 5285 5281 5277 5273 5269 5264 5260 5255 5251 5248 5245 5243 5241 5238 5236 5234 5232 5230 5229 5227 5227 5226 5227 5227 5227 5226 5226 5226 5226 5227 5227 5227 5228 5228 5228 5229 5229 5229 5229 5228 5228 5227 5227 5226 5225 5225 5224 5223 5223